TimeMST,TemperatureF,Dew PointF,Humidity,Sea Level PressureIn,VisibilityMPH,Wind Direction,Wind SpeedMPH,Gust SpeedMPH,PrecipitationIn,Events,Conditions,WindDirDegrees,DateUTC
12:53 AM,30.0,10.9,45,30.21,10.0,ENE,5.8,-,N/A,,Clear,60,2012-11-04 06:53:00
1:53 AM,28.0,12.0,51,30.20,10.0,NE,8.1,-,N/A,,Clear,50,2012-11-04 07:53:00
1:53 AM,27.0,10.9,51,30.22,10.0,ENE,6.9,-,N/A,,Clear,70,2012-11-04 08:53:00
2:53 AM,26.1,10.0,51,30.22,10.0,East,5.8,-,N/A,,Clear,90,2012-11-04 09:53:00
3:53 AM,25.0,10.0,53,30.24,10.0,East,4.6,-,N/A,,Clear,80,2012-11-04 10:53:00
4:53 AM,24.1,9.0,53,30.27,10.0,ENE,4.6,-,N/A,,Clear,60,2012-11-04 11:53:00
5:53 AM,21.9,10.0,60,30.32,10.0,ENE,8.1,-,N/A,,Clear,70,2012-11-04 12:53:00
6:53 AM,24.1,9.0,53,30.35,10.0,ENE,8.1,-,N/A,,Clear,70,2012-11-04 13:53:00
7:53 AM,32.0,14.0,48,30.36,10.0,East,3.5,-,N/A,,Clear,80,2012-11-04 14:53:00
8:53 AM,43.0,12.9,30,30.33,10.0,Calm,Calm,-,N/A,,Clear,0,2012-11-04 15:53:00
9:53 AM,53.1,12.9,20,30.30,10.0,ESE,3.5,-,N/A,,Clear,110,2012-11-04 16:53:00
10:53 AM,61.0,15.1,17,30.27,10.0,West,10.4,17.3,N/A,,Clear,270,2012-11-04 17:53:00
11:53 AM,63.0,15.1,16,30.23,10.0,West,11.5,-,N/A,,Clear,260,2012-11-04 18:53:00
12:53 PM,62.1,15.1,16,30.22,10.0,WNW,13.8,-,N/A,,Clear,290,2012-11-04 19:53:00
1:53 PM,64.0,15.1,15,30.20,10.0,West,17.3,23.0,N/A,,Clear,280,2012-11-04 20:53:00
2:53 PM,63.0,14.0,15,30.21,10.0,West,11.5,-,N/A,,Clear,280,2012-11-04 21:53:00
3:53 PM,63.0,14.0,15,30.21,10.0,West,15.0,19.6,N/A,,Clear,270,2012-11-04 22:53:00
4:53 PM,60.1,14.0,16,30.23,10.0,WNW,10.4,-,N/A,,Clear,290,2012-11-04 23:53:00
5:53 PM,46.0,17.1,31,30.30,10.0,Calm,Calm,-,N/A,,Clear,0,2012-11-05 00:53:00
6:53 PM,45.0,16.0,31,30.32,10.0,Calm,Calm,-,N/A,,Clear,0,2012-11-05 01:53:00
7:53 PM,41.0,15.1,35,30.32,10.0,SE,5.8,-,N/A,,Clear,140,2012-11-05 02:53:00
8:53 PM,39.0,15.1,38,30.30,10.0,NE,5.8,-,N/A,,Clear,50,2012-11-05 03:53:00
9:53 PM,36.0,14.0,41,30.28,10.0,ENE,8.1,-,N/A,,Clear,70,2012-11-05 04:53:00
10:53 PM,34.0,14.0,44,30.27,10.0,ENE,8.1,-,N/A,,Clear,70,2012-11-05 05:53:00